Regional Weather Roundup
Issued by NWS

Home | Current Version | Previous Version | Graphics & Text | Print | Product List | Glossary On
Versions: 1 2 3 4 5 6 7 8 9 10 11 12 13 14 15 16 17 18 19 20 21 22 23 24 25 26 27 28 29 30 31 32 33 34 35 36 37 38 39 40 41 42 43 44 45 46 47 48 49 50
809
ASUS43 KLMK 210410
RWRKY
KENTUCKY REGIONAL WEATHER ROUNDUP
NATIONAL WEATHER SERVICE LOUISVILLE KY
1200 AM EDT FRI JUL 21 2017

NOTE "FAIR" INDICATES FEW OR NO CLOUDS BELOW 12,000 FEET
WITH NO SIGNIFICANT WEATHER AND/OR OBSTRUCTIONS TO VISIBILITY.

KYZ001>023-026-027-061>063-070>075-210500-
WESTERN AND SOUTH CENTRAL KENTUCKY

CITY           SKY/WX    TMP DP  RH WIND       PRES   REMARKS
PADUCAH        CLEAR     82  74  76 S5        30.00S
HENDERSON      PTCLDY    78  75  90 S5        30.01S
OWENSBORO      CLEAR     80  75  84 S3        30.02S
HOPKINSVILLE   CLEAR     82  75  80 CALM      30.03S
BOWLING GREEN  CLEAR     81  74  79 CALM      30.05R
GLASGOW        CLEAR     77  76  96 CALM      30.06R
$$

KYZ024-025-028>034-038-045-046-053-210500-
NORTH CENTRAL KENTUCKY

CITY           SKY/WX    TMP DP  RH WIND       PRES   REMARKS
LOUISVILLE/SDF PTCLDY    85  74  69 SW5       30.02S HX  92
LOUISVILLE/LOU CLEAR     83  75  77 S5        30.03S HX  90
FORT KNOX      CLEAR     77  74  90 SW3       30.03S
$$

KYZ035>037-039>044-047>052-055>060-089>105-210500-
NORTHEAST KENTUCKY

CITY           SKY/WX    TMP DP  RH WIND       PRES   REMARKS
LEXINGTON      CLEAR     79  71  76 S5        30.06S
COVINGTON      CLOUDY    82  74  76 SW5       30.02S
FRANKFORT      CLEAR     79  72  79 SW5       30.03S
$$

KYZ054-064>069-076>088-106>120-210500-
SOUTHEAST KENTUCKY

CITY           SKY/WX    TMP DP  RH WIND       PRES   REMARKS
JACKSON        CLOUDY    78  72  81 CALM      30.09S
LONDON         MOCLDY    76  72  87 CALM      30.09R
SOMERSET       CLEAR     73  73 100 CALM      30.09R
MIDDLESBORO    CLOUDY    73  72  96 CALM      30.11S
MONTICELLO     PTCLDY    72  72 100 CALM      30.10R FOG
$$





USA.gov is the U.S. government's official web portal to all federal, state and local government web resources and services.